Volver al catálogo

YAOGAN-33

ActivoMilitarSSO
NORAD 47302·PAYLOAD·🇨🇳 China

Lanzado Dec 27, 2020 desde Jiuquan Satellite Launch Center

Loading…

Próximos Pases (próximas 24 horas)

TLE

ActualizadoSource: Space-Track

Época: Sep 14, 2026, 14:31 UTC

1 47302U 20103A   26257.60554225  .00000264  00000-0  66168-4 0  9996
2 47302  98.0264 136.2641 0002721 184.9077 175.2097 14.58621360304349

Sigue YAOGAN-33 en tiempo real con AllMySat

Download on the App Store